sat.trackr.live / text

‹ back to catalog

STARLINK-35990

NORAD 66792 · 2025-278B

PAYLOAD ACTIVE UNKNOWN

§ Identity

Operator
Country
US
Launch date
2025-12-01
Launch site
AFETR
Launch vehicle
Mass (kg)
RCS (m²)

Purposes: comms

External: N2YO · Heavens-Above · Gunter

§ Orbital elements

Epoch: 2026-05-25T03:19:23.178144Z

Period
94.27 min
Inclination
43.0020°
Eccentricity
0.0001209
Mean motion
15.27596332 rev/d
Perigee alt
482.2 km
Apogee alt
483.8 km
Semi-major
6,861.1 km
B*
9.9191e-4
RAAN
42.3945°
Arg perigee
278.0616°
Mean anomaly
82.0099°
Rev number
2,690

§ Raw data

STARLINK-359901 66792U 25278B   26145.13846271  .00027147  00000+0  99191-3 0  99962 66792  43.0020  42.3945 0001209 278.0616  82.0099 15.27596332 26908

JSON: /api/v1/satellites/66792 · /tle

For live sub-satellite position, see the globe view (requires WebGL).

§ Visibility from observer

Set your observer location to see the next 7 days of passes ≥ 10°. The values pass through the URL so the page stays shareable.

No JS? Fill the form by hand. The geolocation button needs JavaScript.